Regional Weather Roundup
Issued by NWS

Home | Current Version | Previous Version | Text Only | Print | Product List | Glossary On
Versions: 1 2 3 4 5 6 7 8 9 10 11 12 13 14 15 16 17 18 19 20 21 22 23 24 25 26 27
000
ASUS45 KREV 290810
RWRNV
NEVADA REGIONAL WEATHER ROUNDUP
NATIONAL WEATHER SERVICE RENO NV
100 AM PDT SUN MAY 29 2016

NOTE: "FAIR" INDICATES FEW OR NO CLOUDS BELOW 12,000 FEET WITH NO
SIGNIFICANT WEATHER AND/OR OBSTRUCTIONS TO VISIBILITY.

NVZ001-003-004-290900-
WESTERN NEVADA

CITY           SKY/WX    TMP DP  RH WIND       PRES   REMARKS
RENO           PTCLDY    60  38  43 W5        30.03R
CARSON CITY    FAIR      54  39  58 CALM      30.06S
MINDEN         FAIR      43  41  93 E7        30.06S
SLIDE MTN        N/A     45  28  53 NE8         N/A
FALLON         PTCLDY    56  34  43 CALM      30.00S
LOVELOCK       CLEAR     56  35  45 E5        29.99S
HAWTHORNE      CLEAR     61  37  41 SE13      30.03S
$$

NVZ002-CAZ072-073-290900-
NORTHERN AND CENTRAL SIERRA

CITY           SKY/WX    TMP DP  RH WIND       PRES   REMARKS
S. LAKE TAHOE  PTCLDY    43  37  79 CALM      30.12R
TRUCKEE        PTCLDY    41  36  81 CALM      30.11S
SQUAW VLY 8000 NOT AVBL
MAMMOTH LAKES  FAIR      42  38  86 CALM      30.17F
BRIDGEPORT     FAIR      36  31  82 CALM      30.15S
$$

NVZ030-031-036-290900-
NORTHERN NEVADA

CITY           SKY/WX    TMP DP  RH WIND       PRES   REMARKS
ELKO           PTCLDY    55  44  66 N5        30.08F
WINNEMUCCA     CLEAR     51  28  41 E9        30.03R
WENDOVER       MOCLDY    63  43  48 N8        30.05F
$$

NVZ035-037-290900-
CENTRAL NEVADA

CITY           SKY/WX    TMP DP  RH WIND       PRES   REMARKS
ELY            PTCLDY    46  39  76 CALM      30.16S
EUREKA           N/A     47  41  80 SW5       30.11F
$$

NVZ013-014-290900-
SOUTH CENTRAL NEVADA

CITY           SKY/WX    TMP DP  RH WIND       PRES   REMARKS
TONOPAH        PTCLDY    55  37  50 N10       30.07S
$$

NVZ017-020-022-290900-
SOUTHERN NEVADA

CITY           SKY/WX    TMP DP  RH WIND       PRES   REMARKS
LAS VEGAS      PTCLDY    77  26  15 SW5       29.82S
N. LAS VEGAS   CLEAR     76  28  17 N6        29.85S
NELLIS AFB     CLEAR     75  30  19 CALM      29.84S
HENDERSON      CLEAR     75  28  17 S9        29.89F
MERCURY        CLEAR     67  25  20 E5        29.92R
$$




USA.gov is the U.S. government's official web portal to all federal, state and local government web resources and services.